Theta_e
295 295 296 296 296 295 295 295 295 295 295 295 295 295 294 292 293 293 292 292 292 293 293 293 293 294 293 294 294 294 293 294 295 297 296 298 297 297 297 297 297 299 301
294 294 295 295 295 295 295 295 295 295 295 295 294 294 292 292 292 293 292 292 293 293 294 295 295 295 295 295 294 294 294 294 296 296 297 297 296 297 298 298 298 298 300
294 294 295 295 295 295 295 295 295 295 295 294 294 294 292 292 292 292 292 292 293 293 295 295 295 295 294 293 294 294 294 295 295 296 296 298 298 298 297 298 298 300 300
294 294 295 295 295 295 294 295 295 295 295 294 294 293 292 292 292 292 292 292 293 294 295 295 296 295 294 294 294 295 295 296 297 296 297 297 296 298 299 297 298 299 299
293 293 295 295 295 295 294 294 295 295 294 294 294 293 293 293 292 292 292 292 292 293 294 295 295 296 295 296 297 297 296 297 298 296 296 297 297 297 298 298 298 300 299
293 294 295 295 295 294 294 295 295 294 294 294 293 293 293 293 292 292 292 292 293 293 294 294 293 294 294 296 297 297 297 298 297 297 297 297 297 297 297 298 298 299 299
293 293 294 294 294 294 294 294 294 294 294 294 293 293 293 293 292 292 292 292 292 293 293 294 293 293 293 295 295 296 297 297 298 297 297 297 296 296 297 296 298 298 298
293 293 294 294 294 294 294 294 294 294 294 294 293 293 293 293 293 292 292 292 291 292 293 293 293 293 292 293 294 294 295 295 296 297 297 297 297 297 297 296 296 297 299
293 293 294 294 294 293 294 294 294 294 294 293 293 293 293 293 293 292 292 292 292 291 293 293 292 293 292 292 292 293 293 294 294 294 295 296 296 297 297 296 296 295 296
293 292 293 294 293 293 294 294 294 294 294 293 293 293 293 293 293 293 292 292 292 291 292 293 292 292 292 291 292 292 293 293 294 294 294 294 295 296 296 296 296 296 295
293 291 293 293 293 293 294 294 294 294 294 293 293 293 293 293 293 293 293 292 292 291 292 293 294 294 293 291 292 292 292 292 292 292 294 295 295 295 297 297 296 296 296
292 292 293 293 293 293 294 294 294 294 294 293 293 293 293 293 293 294 293 293 293 292 292 292 294 294 294 292 291 292 291 291 291 292 293 294 294 294 296 296 297 297 296
292 291 292 292 293 293 293 294 294 294 294 293 293 292 293 293 294 294 294 293 293 293 293 292 293 295 294 292 291 291 290 290 290 290 292 293 293 295 296 296 297 297 296
292 290 290 292 292 293 293 294 294 294 293 293 293 293 292 293 294 294 294 294 294 293 293 293 292 294 295 293 292 291 291 290 290 290 291 294 293 294 296 295 296 297 297
292 291 290 291 292 293 293 293 294 294 293 293 293 293 292 292 293 294 294 294 294 294 293 293 293 292 295 296 293 291 291 290 290 290 290 292 293 293 294 296 295 296 296
293 292 292 292 291 293 293 293 294 294 293 293 293 293 292 292 292 293 293 293 294 293 293 292 293 292 294 298 295 293 291 290 290 290 291 292 292 292 291 293 294 296 295
292 292 292 292 292 293 293 293 293 293 293 293 293 293 292 291 292 292 292 292 293 293 293 292 292 291 294 297 297 294 292 291 290 291 291 292 293 293 290 291 290 291 293
291 292 293 293 293 293 293 293 293 293 293 293 293 293 292 291 291 291 290 291 291 291 292 291 290 290 293 295 296 293 292 291 291 291 291 292 294 295 293 292 291 290 290
291 293 294 294 293 293 292 292 293 293 293 293 293 293 292 291 290 289 289 289 289 290 290 290 290 291 292 294 294 294 292 291 291 291 291 292 293 295 294 292 291 291 290
292 294 294 294 293 292 292 292 293 293 293 293 293 293 292 292 291 290 289 289 290 290 290 290 291 291 291 293 295 295 293 293 290 291 291 292 293 293 294 293 293 292 291
293 294 294 293 294 292 292 292 292 292 293 293 293 293 293 292 292 291 291 291 291 291 291 291 291 292 291 292 294 294 293 292 290 290 291 291 293 293 292 293 292 292 291
293 294 293 293 293 292 292 291 292 292 293 293 293 293 293 293 292 292 292 291 291 291 291 292 292 291 293 292 293 293 293 293 290 290 291 291 292 292 291 291 292 291 290
293 293 293 293 292 292 292 291 292 291 293 293 293 293 292 293 292 292 292 292 292 292 291 291 292 292 293 293 292 291 292 291 290 289 290 290 290 289 289 290 290 289 289
292 293 293 292 292 292 292 292 292 291 292 293 293 293 293 293 293 292 292 292 292 292 292 292 292 292 292 293 293 292 290 290 289 288 288 288 288 288 288 289 289 289 288
292 293 292 292 292 292 292 292 292 292 292 293 293 293 293 293 293 292 292 292 292 292 293 293 293 292 292 294 293 292 291 291 290 288 288 288 287 287 287 287 288 288 288
292 292 293 293 293 292 292 292 292 292 291 292 293 293 293 293 293 292 292 292 292 292 292 293 293 293 293 294 293 292 290 290 288 287 287 287 287 287 287 286 286 287 287
Wind_Speed
3 1 3 4 6 7 9 9 12 13 15 18 19 19 22 17 18 18 19 20 24 25 25 26 25 25 20 23 18 22 21 22 22 18 16 14 23 14 16 16 14 14 13
3 1 3 6 5 7 9 9 12 13 14 15 17 15 20 14 18 20 21 22 25 26 24 27 29 27 22 18 18 18 17 17 16 8 15 3 6 8 12 13 5 10 11
5 2 3 6 6 8 9 9 11 12 13 14 15 18 16 18 22 23 24 24 25 27 23 26 26 22 17 16 17 18 17 16 21 16 6 2 2 5 10 17 17 8 3
3 2 2 4 6 8 8 8 11 11 13 14 13 18 14 16 21 22 23 24 24 27 24 25 25 23 19 16 15 15 18 19 16 18 7 11 6 2 3 11 15 11 16
5 5 2 4 5 7 8 9 10 11 13 13 13 15 16 18 18 20 22 24 24 24 25 26 22 24 23 23 22 20 20 16 16 13 6 4 3 4 2 2 6 9 18
6 4 1 3 5 7 7 8 9 11 12 11 15 13 15 17 17 21 22 24 25 25 24 23 23 21 22 23 22 18 16 17 13 11 12 6 3 3 3 1 2 4 6
5 4 0 2 3 6 7 8 9 11 12 10 14 12 13 15 17 19 19 20 23 23 24 21 23 26 24 18 19 20 19 19 17 14 11 10 7 8 7 5 2 1 4
4 5 3 1 1 4 5 7 9 11 12 9 13 13 12 15 15 18 17 17 20 20 20 19 17 19 24 23 18 17 17 19 18 18 16 12 11 8 6 4 3 1 1
6 5 5 3 1 3 4 7 9 10 11 11 11 13 13 13 16 16 15 18 18 19 20 19 19 17 20 25 22 21 19 17 18 18 15 13 14 9 8 6 3 2 2
6 4 5 2 1 1 3 4 6 8 11 11 11 13 12 13 13 13 15 18 19 17 20 20 17 16 16 21 22 21 19 18 19 18 16 13 12 9 7 6 5 2 1
7 6 7 3 1 1 2 4 6 8 10 10 11 11 12 12 11 13 14 15 18 17 18 22 20 18 15 13 15 18 20 21 22 22 19 18 14 9 9 7 5 3 3
7 10 9 5 4 1 1 3 5 7 9 9 9 10 11 11 10 14 15 15 15 18 17 20 22 17 16 13 13 15 16 17 19 21 19 20 18 11 8 8 7 4 4
7 7 8 7 6 3 1 1 4 5 6 7 8 10 11 11 11 14 14 14 13 14 17 18 21 17 14 12 13 12 15 15 16 17 18 20 20 19 12 11 10 6 5
8 7 8 10 10 6 4 1 3 4 5 6 8 10 11 10 11 13 15 12 13 14 14 17 19 20 14 7 15 14 12 14 14 15 16 15 23 21 11 15 11 6 7
9 9 7 12 11 8 5 3 1 2 3 5 8 10 9 10 10 11 12 12 13 12 14 15 17 20 19 9 14 14 12 13 15 13 14 14 13 17 15 10 10 11 5
10 10 10 14 13 11 8 6 2 1 2 4 7 8 9 8 9 10 11 11 11 12 12 15 14 18 19 13 11 13 13 12 13 14 15 14 12 13 13 13 10 7 5
11 11 13 18 15 13 9 9 5 2 1 3 4 6 6 8 9 10 10 10 11 11 12 13 14 15 13 19 12 12 11 11 12 13 14 16 14 10 9 11 10 9 7
11 11 18 19 17 14 11 9 7 5 3 3 3 4 5 7 8 9 11 10 11 11 11 11 13 14 10 16 12 15 13 11 10 12 14 15 18 17 5 11 7 7 4
17 22 24 21 17 15 12 11 10 8 7 5 3 3 3 5 8 9 10 11 11 11 11 11 12 13 9 13 14 15 15 14 13 12 12 14 16 15 1 12 11 9 7
24 24 23 20 17 16 13 13 11 10 9 6 4 3 2 3 5 7 9 9 10 9 10 11 12 13 13 10 15 15 16 14 15 13 13 11 13 12 12 11 12 9 9
25 24 24 24 20 17 14 14 12 12 8 6 6 6 4 3 3 4 5 6 7 8 9 11 12 12 14 14 12 14 15 13 14 14 15 14 13 12 11 10 12 10 11
23 25 25 22 19 18 16 14 14 10 9 7 7 6 5 4 4 4 5 6 7 8 10 11 13 13 14 15 14 13 13 12 14 14 13 13 12 11 11 11 10 9 10
23 25 25 22 19 20 18 15 13 11 10 8 7 6 6 6 5 5 5 5 7 8 10 12 14 16 15 15 15 14 12 13 13 12 11 12 11 10 10 10 10 9 9
23 25 24 22 22 20 19 15 11 11 10 9 7 7 6 7 7 7 5 6 7 9 9 12 13 15 14 15 15 15 14 14 14 12 11 11 11 11 11 11 10 9 9
23 27 26 23 24 21 20 16 13 12 11 10 8 7 7 7 8 8 7 8 7 9 12 12 10 13 15 15 13 13 12 12 11 11 11 15 17 18 18 17 14 12 11
25 26 27 25 23 21 20 17 15 13 12 12 10 8 7 8 8 9 9 6 7 8 8 8 10 12 12 12 11 12 10 10 11 11 13 15 15 16 18 19 19 17 16
Wind_Direction
160 133 52 19 8 18 18 14 12 12 6 4 360 3 359 8 15 9 4 358 355 357 353 348 332 335 327 314 310 307 317 317 312 301 304 297 301 293 333 286 254 241 260
190 205 4 358 13 9 10 13 13 10 9 4 6 8 4 8 8 7 7 2 4 3 2 356 343 326 327 320 326 326 318 310 315 305 301 306 329 3 2 31 260 248 265
198 199 337 352 4 9 6 8 5 7 8 6 7 7 14 13 5 3 3 9 9 8 5 1 359 0 353 341 333 327 317 305 305 295 267 301 307 334 334 351 33 61 264
200 208 284 351 2 6 5 10 6 10 7 7 13 6 8 1 354 355 2 11 13 15 16 9 7 8 4 350 337 330 326 316 308 326 265 259 296 328 326 338 359 46 41
201 212 288 350 6 8 6 6 10 13 11 8 14 8 7 5 360 5 9 13 13 13 12 13 9 10 4 353 348 349 338 325 327 351 360 336 323 329 298 329 350 16 26
203 211 280 359 16 10 12 11 13 13 12 14 11 12 11 7 4 7 10 13 12 14 17 16 14 13 8 9 9 6 354 349 1 354 355 8 329 348 331 311 339 333 1
189 203 227 2 5 0 9 15 11 13 12 15 13 14 12 11 9 8 7 11 9 11 12 15 20 22 14 7 14 20 23 19 3 2 350 1 2 334 343 326 33 19 329
193 202 181 152 356 6 12 15 12 14 10 7 12 13 8 10 6 6 8 10 8 7 8 11 15 18 20 19 11 20 21 14 13 13 353 355 348 351 345 336 352 15 348
193 193 169 175 26 13 19 16 10 10 7 4 3 4 7 7 11 14 14 11 6 6 9 9 12 17 22 23 24 26 20 22 22 18 5 10 3 359 357 339 347 74 12
191 182 177 197 221 354 28 20 14 15 8 8 2 1 2 5 9 10 12 13 8 7 9 9 10 9 16 20 22 26 25 23 20 13 14 5 354 3 358 356 352 346 81
191 190 190 206 222 53 5 13 16 18 11 11 8 2 4 4 6 9 5 1 7 10 10 11 9 8 6 12 13 26 28 24 22 18 18 10 2 347 360 343 336 326 290
188 188 190 201 198 191 29 14 17 16 12 10 9 6 5 7 7 4 4 3 3 14 10 10 11 5 6 359 357 8 15 19 18 18 19 17 5 3 335 344 337 313 307
178 186 194 209 215 218 229 20 25 18 11 8 11 9 7 11 7 5 4 2 360 2 11 11 13 9 1 2 6 4 13 16 21 22 19 23 13 7 6 333 312 314 292
185 194 203 212 208 210 214 262 19 14 9 9 12 9 5 0 352 357 3 355 355 355 358 7 9 14 359 336 8 4 3 13 19 22 26 32 24 15 22 32 39 14 308
192 203 198 211 209 209 207 218 323 12 6 8 8 10 2 5 352 356 354 357 359 352 357 350 358 2 7 356 10 6 359 356 3 14 22 26 21 23 20 22 17 27 17
196 204 197 203 209 204 202 202 222 176 359 1 4 9 357 1 356 356 353 351 358 7 6 6 351 354 0 4 19 7 5 1 360 356 8 16 16 9 25 29 22 13 29
194 196 195 199 206 203 203 203 204 195 280 349 350 9 2 358 355 355 359 1 5 7 5 360 1 358 359 357 11 359 357 354 354 354 355 358 1 357 20 26 25 33 20
191 193 197 199 199 202 207 207 206 204 215 266 311 353 5 358 1 6 12 17 19 16 11 2 1 3 10 356 6 6 359 355 354 354 353 353 355 345 352 3 28 16 18
191 197 200 197 195 201 205 206 209 210 218 244 282 323 360 8 10 22 25 32 34 29 17 7 6 5 11 2 5 357 359 358 353 349 355 359 1 2 12 5 14 11 4
191 194 193 189 195 199 202 207 215 212 224 253 277 290 306 324 18 27 30 33 36 28 24 23 17 9 8 1 358 359 357 349 352 0 1 359 355 358 355 353 353 344 345
188 191 188 191 196 196 200 209 219 224 227 256 278 281 279 294 318 335 355 9 23 18 19 25 19 13 7 9 355 360 359 0 356 355 357 358 352 353 355 348 354 349 343
179 188 188 196 196 196 200 210 222 223 228 252 267 267 270 287 298 313 321 330 339 349 355 1 7 12 11 12 7 1 2 2 358 357 356 354 352 353 352 353 350 342 334
179 190 194 197 200 201 204 210 221 217 220 242 267 266 285 289 295 306 317 319 327 335 340 345 350 355 6 8 10 4 3 7 359 357 356 359 1 0 358 353 348 341 345
184 191 196 202 202 204 209 217 217 216 219 228 246 268 285 296 300 301 304 312 319 324 328 330 336 345 351 1 2 359 1 2 4 2 10 13 16 16 12 10 5 353 348
188 194 197 204 211 207 208 213 215 218 223 228 234 245 267 286 297 305 303 301 306 313 315 322 320 335 340 350 348 352 353 356 358 359 13 17 15 12 11 8 8 5 354
192 194 203 209 211 210 211 211 215 222 223 226 234 239 249 261 278 293 304 285 295 301 300 310 315 331 333 334 342 348 348 357 0 7 15 8 6 6 3 1 357 1 358